View from above orbital plane
|
View from above satellite
|
Ground track
|
The orbit data is extracted from the following two-line orbital elements,
1 13403U 82079B 21018.83110344 -.00000158 00000-0 -11920-4 0 9996
2 13403 81.1672 206.1125 0031576 272.1220 87.6388 15.07298684 94051
Epoch (UTC): | 18 January 2021 19:56:47 |
Eccentricity: | 0.0031576 |
inclination: | 81.1672° |
perigee height: | 522 km |
apogee height: | 566 km |
right ascension of ascending node: | 206.1125° |
argument of perigee: | 272.1220° |
revolutions per day: | 15.07298684 |
mean anomaly at epoch: | 87.6388° |
orbit number at epoch: | 9405 |
The dashed part of the orbit path shows where the satellite is in the earth's shadow,
|
|